WHITEHORSE, YK current weather conditions

sailwx.info

Wind from 130 at 3 knots

Air temperature -6.0° C
Visibility: greater than 34.8 NM
Dewpoint -13.0° C

Last reported at 2015-Feb-28 19:00 UTC.
Time now 2015-Feb-28 20:54 UTC

Location: N 60°43' W 135°04'.
View on Google Maps.

See reports from other nearby stations

  
Tides and Currents Weather Stations Pressure Air Temp Water Temp Dewpoint Dewpoint Depression Visibility Wind Speed Wind Dir Waves Ship Positions
date/time (UTC)wind fromknots sea level pressurealtimeterstation pressurevisibilityair tempwater tempwave heightnotes
2015-Feb-28 19:00 130 3 34.8-6.0
2015-Feb-28 18:00 180 7 34.8-7.0
2015-Feb-28 17:00 34.8-7.0
2015-Feb-28 16:00 170 7 34.8-7.0
2015-Feb-28 15:00 150 6 13.0-7.0
2015-Feb-28 14:00 170 7 13.0-7.0
2015-Feb-28 13:00 160 10 13.0-7.0
2015-Feb-28 12:00 180 15 gusting 20 13.0-7.0
2015-Feb-28 11:00 160 12 13.0-6.0
2015-Feb-28 10:00 170 11 13.0-7.0
2015-Feb-28 09:00 170 4 13.0-9.0
2015-Feb-28 08:00 150 3 13.0-10.0
2015-Feb-28 07:00 180 3 13.0-11.0
2015-Feb-28 06:00 240 4 13.0-11.0
2015-Feb-28 05:00 220 2 13.0-9.0
2015-Feb-28 04:00 240 2 34.8-9.0
2015-Feb-28 03:00 220 5 34.8-7.0
2015-Feb-28 02:00 170 2 34.8-5.0
2015-Feb-28 01:00 010 2 34.8-1.0
2015-Feb-28 00:00 330 2 34.8-2.0
2015-Feb-27 23:00 34.8-3.0
2015-Feb-27 22:00 34.8-5.0
2015-Feb-27 21:00 350 2 34.8-7.0
2015-Feb-27 20:00 34.8-11.0
2015-Feb-27 19:00 34.8-13.0
2015-Feb-27 18:00 34.8-15.0
2015-Feb-27 17:00 210 3 34.8-17.0
2015-Feb-27 16:00 34.8-17.0
2015-Feb-27 15:00 160 4 13.0-17.0
2015-Feb-27 14:00 200 3 13.0-16.0
2015-Feb-27 13:00 210 3 13.0-16.0
2015-Feb-27 12:00 13.0-15.0
2015-Feb-27 11:00 200 2 13.0-15.0
2015-Feb-27 10:00 210 2 13.0-13.0
2015-Feb-27 09:00 260 2 13.0-13.0
2015-Feb-27 08:00 260 2 13.0-11.0
2015-Feb-27 07:00 13.0-10.0
2015-Feb-27 06:00 270 3 13.0-9.0
2015-Feb-27 05:00 260 3 13.0-9.0
2015-Feb-27 04:00 280 3 13.0-7.0
2015-Feb-27 03:00 270 3 21.7-5.0
2015-Feb-27 02:00 290 3 34.8-3.0
2015-Feb-27 01:00 340 5 34.8-3.0
2015-Feb-27 00:00 350 4 34.8-3.0
2015-Feb-26 23:00 330 4 34.8-3.0
2015-Feb-26 22:00 360 5 34.8-3.0
2015-Feb-26 21:00 010 5 34.8-4.0
2015-Feb-26 20:00 020 4 gusting 15 34.8-4.0